Superior, WI

12:09 PM CDT on October 20, 2017 (GMT -0500)
Bong

Weather History for KSUW - October, 2013

Change the Weather History Date:

Saturday, October 5, 2013

  Actual Average Record
Temperature  
Mean Temperature 48 °F -  
Max Temperature 50 °F 57 °F 84 °F (1961)
Min Temperature 47 °F 40 °F 20 °F (1952)
Degree Days  
Heating Degree Days 16    
Moisture  
Dew Point 48 °F    
Average Humidity 97    
Maximum Humidity 99    
Minimum Humidity 89    
Precipitation  
Precipitation 1.57 in - - ()
Sea Level Pressure  
Sea Level Pressure 29.91 in    
Wind  
Wind Speed 21 mph (ENE)    
Max Wind Speed 26 mph    
Max Gust Speed 37 mph    
Visibility 5 miles    
Events Rain    
Averages and records for this station are not official NWS values.
T = Trace of Precipitation, MM = Missing Value Source: NWS Daily Summary

Daily Weather History Graph

Daily Weather History Graph

Search for Another Location

Airport or City:

Trip Planner

Search our weather history database for the weather conditions in past years. The results will help you decide how hot, cold, wet, or windy it might be!

Date:

Astronomy

Oct. 05, 2013 Rise Set
Actual Time 7:12 AM CDT 6:39 PM CDT
Civil Twilight 6:42 AM CDT 7:09 PM CDT
Nautical Twilight 6:07 AM CDT 7:44 PM CDT
Astronomical Twilight 5:31 AM CDT 8:20 PM CDT
Moon 7:57 AM CDT (10/5) 6:52 PM CDT (10/5)
Length of Visible Light 12h 27m
Length of Day
11h 27m
New Moon, 1% of the Moon is Illuminated
Oct 5
New Moon
Oct 11
First Quarter
Oct 18
Full
Oct 26
Last Quarter
Nov 3
New

Hourly Weather History & Observations

Time (CDT) Temp. Dew Point Humidity Pressure Visibility Wind Dir Wind Speed Gust Speed Precip Events Conditions
12:15 AM 50.9 °F 47.7 °F 89% 30.04 in 7.0 mi ENE 23.0 mph 34.5 mph N/A   Overcast
12:35 AM 50.4 °F 48.2 °F 92% 30.03 in 5.0 mi ENE 23.0 mph 36.8 mph 0.02 in Rain Light Rain
12:55 AM 50.2 °F 48.9 °F 95% 30.04 in 5.0 mi ENE 21.9 mph 29.9 mph 0.04 in Rain Light Rain
1:15 AM 50.5 °F 48.9 °F 94% 30.02 in 4.0 mi ENE 23.0 mph 35.7 mph 0.02 in Rain Rain
1:35 AM 50.2 °F 49.1 °F 96% 30.02 in 4.0 mi ENE 18.4 mph 33.4 mph 0.09 in Rain Light Rain
1:55 AM 50.2 °F 48.7 °F 95% 30.01 in 7.0 mi ENE 20.7 mph 34.5 mph 0.12 in Rain Light Rain
2:15 AM 50.2 °F 49.1 °F 96% 30.02 in 5.0 mi ENE 20.7 mph 33.4 mph 0.05 in Rain Rain
2:35 AM 50.0 °F 49.1 °F 97% 30.01 in 4.0 mi East 23.0 mph 34.5 mph 0.16 in Rain Rain
2:55 AM 49.6 °F 48.9 °F 97% 30.01 in 2.5 mi ENE 18.4 mph 31.1 mph 0.39 in Rain Heavy Rain
3:15 AM 49.5 °F 48.6 °F 97% 29.99 in 7.0 mi ENE 19.6 mph 33.4 mph 0.02 in Rain Light Rain
3:35 AM 49.5 °F 48.6 °F 97% 29.99 in 10.0 mi ENE 18.4 mph 31.1 mph 0.05 in Rain Light Rain
3:55 AM 49.6 °F 48.7 °F 97% 29.98 in 5.0 mi ENE 21.9 mph 29.9 mph 0.10 in Rain Light Rain
4:15 AM 49.5 °F 48.6 °F 97% 29.98 in 10.0 mi ENE 18.4 mph 29.9 mph 0.01 in Rain Light Rain
4:35 AM 49.6 °F 48.6 °F 96% 29.97 in 10.0 mi ENE 26.5 mph 36.8 mph 0.01 in   Overcast
4:55 AM 50.0 °F 48.6 °F 95% 29.97 in 10.0 mi ENE 19.6 mph 36.8 mph 0.01 in   Overcast
5:15 AM 50.0 °F 48.6 °F 95% 29.97 in 10.0 mi ENE 26.5 mph 35.7 mph N/A   Overcast
5:35 AM 50.0 °F 48.4 °F 94% 29.96 in 10.0 mi ENE 21.9 mph 33.4 mph N/A   Overcast
5:55 AM 50.0 °F 48.7 °F 95% 29.96 in 5.0 mi ENE 24.2 mph 36.8 mph 0.01 in Rain Light Rain
6:15 AM 49.6 °F 48.7 °F 97% 29.98 in 4.0 mi ENE 21.9 mph 31.1 mph N/A Rain Rain
6:35 AM 49.6 °F 48.9 °F 97% 29.96 in 3.0 mi ENE 21.9 mph 35.7 mph 0.02 in Rain Light Rain
6:55 AM 49.6 °F 49.1 °F 98% 29.96 in 4.0 mi ENE 23.0 mph 33.4 mph 0.02 in Rain Light Rain
7:15 AM 50.0 °F 49.1 °F 97% 29.97 in 5.0 mi ENE 16.1 mph 31.1 mph N/A   Light Drizzle
7:35 AM 49.6 °F 49.1 °F 98% 29.97 in 3.0 mi ENE 21.9 mph 34.5 mph 0.02 in Rain Rain
7:55 AM 49.6 °F 49.1 °F 98% 29.95 in 3.0 mi ENE 21.9 mph 29.9 mph 0.02 in Rain Light Rain
8:15 AM 49.6 °F 49.1 °F 98% 29.95 in 4.0 mi ENE 21.9 mph 31.1 mph N/A   Light Drizzle
8:35 AM 49.6 °F 49.1 °F 98% 29.95 in 3.0 mi ENE 19.6 mph 34.5 mph N/A   Light Drizzle
8:55 AM 49.5 °F 49.1 °F 99% 29.95 in 3.0 mi ENE 21.9 mph 29.9 mph N/A   Light Drizzle
9:15 AM 49.5 °F 48.7 °F 97% 29.96 in 3.0 mi ENE 20.7 mph 31.1 mph N/A   Overcast
9:35 AM 49.1 °F 48.6 °F 98% 29.95 in 4.0 mi ENE 20.7 mph 31.1 mph 0.01 in Rain Light Rain
9:55 AM 49.1 °F 48.6 °F 98% 29.93 in 7.0 mi ENE 23.0 mph 36.8 mph 0.02 in   Light Drizzle
10:15 AM 49.3 °F 48.7 °F 98% 29.95 in 4.0 mi ENE 23.0 mph 32.2 mph N/A   Overcast
10:35 AM 49.1 °F 48.6 °F 98% 29.95 in 4.0 mi ENE 19.6 mph 28.8 mph N/A   Overcast
10:55 AM 48.9 °F 48.4 °F 98% 29.95 in 3.0 mi ENE 17.3 mph 28.8 mph N/A Rain Light Rain
11:15 AM 48.7 °F 48.2 °F 98% 29.96 in 2.0 mi ENE 23.0 mph 33.4 mph N/A   Light Drizzle
11:35 AM 48.6 °F 48.2 °F 99% 29.96 in 2.0 mi ENE 21.9 mph 33.4 mph 0.01 in Rain Light Rain
11:55 AM 48.4 °F 47.8 °F 98% 29.95 in 2.5 mi ENE 15.0 mph 29.9 mph 0.01 in Rain Light Rain
12:15 PM 48.2 °F 47.7 °F 98% 29.95 in 2.5 mi ENE 20.7 mph 31.1 mph N/A   Light Drizzle
12:35 PM 48.2 °F 47.7 °F 98% 29.95 in 2.5 mi ENE 13.8 mph 31.1 mph 0.01 in Rain Light Rain
12:55 PM 48.2 °F 47.7 °F 98% 29.94 in 3.0 mi ENE 18.4 mph 32.2 mph 0.01 in Rain Light Rain
1:15 PM 48.2 °F 47.7 °F 98% 29.93 in 4.0 mi ENE 20.7 mph 32.2 mph N/A Rain Light Rain
1:35 PM 48.2 °F 47.8 °F 99% 29.92 in 2.5 mi ENE 21.9 mph 31.1 mph 0.01 in Rain Light Rain
1:55 PM 48.2 °F 47.7 °F 98% 29.92 in 2.0 mi ENE 16.1 mph 26.5 mph 0.02 in Rain Light Rain
2:15 PM 48.2 °F 47.8 °F 99% 29.91 in 2.0 mi ENE 19.6 mph 29.9 mph 0.02 in Rain Light Rain
2:35 PM 48.2 °F 47.8 °F 99% 29.89 in 2.0 mi ENE 20.7 mph 29.9 mph 0.02 in Rain Light Rain
2:55 PM 48.2 °F 47.7 °F 98% 29.89 in 2.5 mi ENE 23.0 mph 29.9 mph 0.03 in   Light Drizzle
3:15 PM 48.2 °F 47.5 °F 97% 29.89 in 3.0 mi ENE 19.6 mph 33.4 mph N/A   Light Drizzle
3:35 PM 48.2 °F 47.5 °F 97% 29.88 in 2.5 mi ENE 21.9 mph 29.9 mph 0.01 in Rain Light Rain
3:55 PM 48.4 °F 48.0 °F 99% 29.86 in 2.5 mi ENE 20.7 mph 31.1 mph 0.01 in   Light Drizzle
4:15 PM 48.2 °F 47.8 °F 99% 29.85 in 2.5 mi ENE 18.4 mph 32.2 mph 0.01 in Rain Light Rain
4:35 PM 48.2 °F 47.8 °F 99% 29.85 in 2.5 mi ENE 15.0 mph 32.2 mph 0.01 in Rain Light Rain
4:55 PM 48.2 °F 47.8 °F 99% 29.85 in 3.0 mi ENE 18.4 mph 29.9 mph 0.01 in   Light Drizzle
5:15 PM 48.2 °F 47.7 °F 98% 29.85 in 2.5 mi NE 17.3 mph 29.9 mph 0.01 in Rain Light Rain
5:35 PM 48.2 °F 47.7 °F 98% 29.84 in 2.0 mi ENE 18.4 mph 31.1 mph 0.03 in Rain Light Rain
5:55 PM 48.2 °F 47.8 °F 99% 29.83 in 2.0 mi ENE 21.9 mph 28.8 mph 0.07 in Rain Rain
6:15 PM 48.6 °F 48.2 °F 99% 29.82 in 2.5 mi ENE 19.6 mph 28.8 mph 0.02 in Rain Light Rain
6:35 PM 48.4 °F 48.2 °F 99% 29.81 in 4.0 mi NE 18.4 mph 32.2 mph 0.03 in Rain Light Rain
6:55 PM 48.2 °F 48.0 °F 99% 29.80 in 4.0 mi ENE 18.4 mph 31.1 mph 0.03 in Rain Light Rain
7:15 PM 48.2 °F 47.8 °F 99% 29.79 in 4.0 mi ENE 21.9 mph 33.4 mph N/A Rain Light Rain
7:35 PM 48.2 °F 47.8 °F 99% 29.77 in 4.0 mi ENE 20.7 mph 32.2 mph N/A   Light Drizzle
7:55 PM 48.2 °F 47.8 °F 99% 29.77 in 5.0 mi ENE 20.7 mph 33.4 mph N/A   Light Drizzle
8:15 PM 48.4 °F 48.2 °F 99% 29.78 in 5.0 mi ENE 19.6 mph 32.2 mph 0.01 in Rain Light Rain
8:35 PM 48.7 °F 48.4 °F 99% 29.77 in 3.0 mi ENE 21.9 mph 29.9 mph 0.13 in Rain Rain
8:55 PM 49.1 °F 48.4 °F 97% 29.81 in 5.0 mi ENE 13.8 mph 27.6 mph 0.21 in Rain Rain
9:15 PM 49.1 °F 48.6 °F 98% 29.83 in 3.0 mi ENE 13.8 mph 23.0 mph 0.18 in Rain Heavy Rain
9:35 PM 49.1 °F 48.4 °F 97% 29.79 in 7.0 mi ENE 17.3 mph 26.5 mph 0.26 in Rain Rain
9:55 PM 48.9 °F 48.2 °F 97% 29.80 in 5.0 mi ENE 18.4 mph 25.3 mph 0.34 in Rain Heavy Rain
10:15 PM 48.2 °F 47.7 °F 98% 29.76 in 7.0 mi NE 24.2 mph 34.5 mph 0.03 in Rain Rain
10:35 PM 48.2 °F 47.8 °F 99% 29.78 in 10.0 mi ENE 16.1 mph 26.5 mph 0.09 in Rain Light Rain
10:55 PM 48.2 °F 47.5 °F 97% 29.77 in 10.0 mi NE 19.6 mph 29.9 mph 0.09 in   Overcast
11:15 PM 48.2 °F 47.3 °F 97% 29.77 in 10.0 mi NE 17.3 mph 24.2 mph N/A   Overcast
11:35 PM 47.8 °F 47.3 °F 98% 29.78 in 10.0 mi ENE 15.0 mph 26.5 mph N/A Rain Light Rain
11:55 PM 47.8 °F 47.3 °F 98% 29.77 in 10.0 mi NE 13.8 mph 23.0 mph 0.01 in   Light Drizzle